Regional Weather Roundup
Issued by NWS

Home | Current Version | Previous Version | Graphics & Text | Print | Product List | Glossary On
Versions: 1 2 3 4 5 6 7 8 9 10 11 12 13 14 15 16 17 18 19 20 21 22 23 24 25 26 27 28 29 30 31 32 33 34 35 36 37 38 39 40 41 42 43 44 45 46 47 48 49 50
000
ASUS44 KMEG 042010
RWRTN
TENNESSEE HOURLY STATE WEATHER ROUNDUP
NATIONAL WEATHER SERVICE MEMPHIS TN
300 PM CDT SAT JUL 04 2015

TNZ002-004-019-021-049-052-054-088>092-042100-
WEST TENNESSEE

CITY           SKY/WX    TMP DP  RH WIND       PRES   REMARKS
MEMPHIS INTL   CLOUDY    78  70  76 S5        29.98F
NWS MEMPHIS      N/A     74 N/A N/A MISG        N/A
JACKSON        CLOUDY    76  71  85 SW7       29.98F
DYERSBURG        N/A    N/A N/A N/A MISG        N/A
PARIS          SUNNY     79  70  73 VRB3      29.98F
LEXINGTON      MOSUNNY   75  70  83 SW7       29.98F
$$

TNZ008-025-027-028-033-062-065-066-042100-
NORTH MIDDLE TENNESSEE

CITY           SKY/WX    TMP DP  RH WIND       PRES   REMARKS
NASHVILLE      LGT RAIN  73  72  94 NW5       29.99F
CLARKSVILLE    CLOUDY    80  69  69 N8        29.98S
SMYRNA         CLOUDY    82  72  72 S8        30.00S
COOKEVILLE     PTSUNNY   81  73  78 SW6       30.01S
CROSSVILLE     CLOUDY    76  66  71 W6        30.06S
$$

TNZ061-075-076-078-094-096-097-042100-
SOUTH MIDDLE TENNESSEE

CITY           SKY/WX    TMP DP  RH WIND       PRES   REMARKS
FAYETTEVILLE   SUNNY     79  66  65 SW7       30.01F
TULLAHOMA      MOSUNNY   79  68  69 W3        30.03F
WINCHESTER     MOSUNNY   81  70  69 SW5       30.02F
MCMINNVILLE    PTSUNNY   77  72  83 SW8       30.03S
COLUMBIA       MOSUNNY   81  72  74 CALM      29.98F
SHELBYVILLE    PTSUNNY   79  72  78 SW5         N/A
$$

TNZ017-018-042-046-047-042100-
NORTHEAST TENNESSEE

CITY           SKY/WX    TMP DP  RH WIND       PRES   REMARKS
TRI CITIES     PTSUNNY   79  67  66 SW12      30.03S
ELIZABETHTON   MOCLDY    77  68  73 SW10      30.03S
$$

TNZ012-013-036-069-073-074-042100-
CENTRAL EAST TENNESSEE

CITY           SKY/WX    TMP DP  RH WIND       PRES   REMARKS
KNOXVILLE      CLOUDY    76  68  76 SW14      30.02S
OAK RIDGE      CLOUDY    80  69  69 VRB6      30.02S
GATLINBURG     CLOUDY    75  68  78 SW9       30.02S
MORRISTOWN       N/A     79  68  69 W8        30.04S
$$

TNZ083-085-099-042100-
SOUTHEAST TENNESSEE

CITY           SKY/WX    TMP DP  RH WIND       PRES   REMARKS
CHATTANOOGA    CLOUDY    81  67  62 W6        30.02S
$$

SKY/WX REPORTED AS FAIR MEANS FEW OR NO CLOUDS BELOW
12 THOUSAND FEET.




USA.gov is the U.S. government's official web portal to all federal, state and local government web resources and services.